Regional Weather Roundup
Issued by NWS

Home | Current Version | Previous Version | Graphics & Text | Print | Product List | Glossary On
Versions: 1 2 3 4 5 6 7 8 9 10 11 12 13 14 15 16 17 18 19 20 21 22 23 24 25 26 27 28 29 30 31 32 33 34 35 36 37 38 39 40 41 42 43 44 45 46 47 48 49 50
000
ASUS43 KOAX 010410
RWRNE

WEATHER ROUNDUP FOR NEBRASKA
NATIONAL WEATHER SERVICE OMAHA NE
1100 PM CDT SUN AUG 31 2014

NOTES: SATELLITE DATA IS BEING USED TO AUGMENT CLOUD COVER ABOVE
       12000 FEET.
       "FAIR" INDICATES FEW OR NO CLOUDS BELOW 12,000 FEET WITH NO
       SIGNIFICANT WEATHER AND/OR OBSTRUCTIONS TO VISIBILITY.

  * THESE STATIONS DO NOT REPORT WEATHER SUCH AS RAIN...SNOW OR FOG.

NEZ001>004-019>022-054>056-010500-
NEBRASKA PANHANDLE

CITY           SKY/WX    TMP DP  RH WIND       PRES   REMARKS
SCOTTSBLUFF    CLEAR     56  49  77 W8        29.94R
ALLIANCE       CLEAR     50  49  96 NW3       29.92R
CHADRON        PTCLDY    54  52  93 SW7       29.90R
KIMBALL        PTCLDY    55  45  69 NW10      29.96R
SIDNEY         PTCLDY    54  46  74 NW8       29.95R
$$

NEZ057>060-069>072-079>082-010500-
SOUTHWEST NEBRASKA

CITY           SKY/WX    TMP DP  RH WIND       PRES   REMARKS
NORTH PLATTE   CLEAR     58  52  80 W5        29.81R
IMPERIAL       PTCLDY    63  50  62 NW16      29.86R
LEXINGTON      PTCLDY    61  59  94 SW6       29.79R
MCCOOK         PTCLDY    62  58  86 SW8       29.80R
OGALLALA       CLEAR     56  51  83 W5        29.87R
$$

NEZ005>010-023>029-035>040-094-010500-
NORTH CENTRAL NEBRASKA

CITY           SKY/WX    TMP DP  RH WIND       PRES   REMARKS
VALENTINE      PTCLDY    58  56  93 NW8       29.80R
AINSWORTH      PTCLDY    59  54  83 NW9       29.80S
BROKEN BOW     CLEAR     61  54  77 N6        29.78R
O`NEILL        PTCLDY    61  60  96 NE5       29.73R
ORD            PTCLDY    63  57  81 W14G20    29.75R
THEDFORD       PTCLDY    59  56  91 NW10      29.83R
$$

NEZ041-046>049-061>064-073>077-083>087-010500-
SOUTH CENTRAL NEBRASKA

CITY           SKY/WX    TMP DP  RH WIND       PRES   REMARKS
GRAND ISLAND   PTCLDY    64  60  87 W6        29.74R
AURORA         MOCLDY    64  64  99 SE3       29.73R
HASTINGS       PTCLDY    64  60  87 SW3       29.76R
HEBRON         CLOUDY    68  64  86 CALM      29.72R
HOLDREGE       PTCLDY    64  59  84 CALM      29.78R
KEARNEY *      CLEAR     64  57  77 SE6       29.78R
YORK           CLOUDY    63 N/A N/A SW5       29.72R
$$

NEZ011>018-030>034-042>045-010500-
NORTHEAST NEBRASKA

CITY           SKY/WX    TMP DP  RH WIND       PRES   REMARKS
NORFOLK        CLOUDY    63  61  93 W5        29.69F
ALBION         MOCLDY    61  58  91 CALM      29.73R
BLAIR          CLOUDY    69  66  92 S3        29.66S
FREMONT        CLOUDY    66  65  95 CALM      29.67S
TEKAMAH        CLOUDY    66  65  96 S5        29.65F
WAYNE          MOCLDY    62  61  97 CALM      29.68F FOG
$$

NEZ050>053-065>068-078-088>093-010500-
SOUTHEAST NEBRASKA

CITY           SKY/WX    TMP DP  RH WIND       PRES   REMARKS
LINCOLN        CLOUDY    68  65  90 SW3       29.70R
OMAHA EPPLEY   CLOUDY    69  67  93 SE5       29.65F
BEATRICE       CLOUDY    69  65  88 S6        29.70R
FALLS CITY     LGT RAIN  68  66  93 SE10G26   29.74R
NEBRASKA CITY  CLOUDY    71  71 100 S13       29.66F
PLATTSMOUTH    CLOUDY    69  66  92 CALM      29.65F
$$

NEZ044-045-051>053-067-010500-
OMAHA AREA

CITY           SKY/WX    TMP DP  RH WIND       PRES   REMARKS
OMAHA EPPLEY   CLOUDY    69  67  93 SE5       29.65F
BLAIR          CLOUDY    69  66  92 S3        29.66S
FREMONT        CLOUDY    66  65  95 CALM      29.67S
MILLARD        CLOUDY    68  66  94 CALM      29.66S
OFFUTT AFB     CLOUDY    68  68 100 E3        29.64F
PLATTSMOUTH    CLOUDY    69  66  92 CALM      29.65F
WAHOO          FAIR      66  64  91 CALM      29.67R
$$


USA.gov is the U.S. government's official web portal to all federal, state and local government web resources and services.